{"data":{"norad_id":41884,"epoch":"2026-09-19T15:34:25.112064Z","epoch_age_seconds":87875,"freshness":"FRESH","line1":"1 41884U 16078A   26262.64890176  .00021108  00000+0  24468-3 0  9994","line2":"2 41884  34.9572 353.1569 0005139 332.0591  27.9858 15.60800027543505","mean_motion":15.60800027,"eccentricity":0.0005139,"inclination_deg":34.9572,"raan_deg":353.1569,"arg_perigee_deg":332.0591,"mean_anomaly_deg":27.9858,"bstar":0.00024468,"rev_number":54350,"period_min":92.260377696675,"perigee_km":381.86914547208,"apogee_km":388.82065216769,"semimajor_km":6763.4818988199,"source":"CELESTRAK","updated_at":"2026-09-20T09:00:33.218045Z"}}